Portland, ME

4:39 PM EDT on April 25, 2017 (GMT -0400)
Portland International

Weather History for KPWM - April, 2014

Change the Weather History Date:

Sunday, April 13, 2014

  Actual Average Record
Temperature  
Mean Temperature 44 °F 43 °F  
Max Temperature 48 °F 52 °F 74 °F (1968)
Min Temperature 39 °F 34 °F 21 °F (1976)
Degree Days  
Heating Degree Days 21 22  
Month to date heating degree days 288 312  
Since 1 July heating degree days 6697 6330  
Cooling Degree Days 0 0  
Month to date cooling degree days 0 0  
Year to date cooling degree days 0 0  
Moisture  
Dew Point 37 °F    
Average Humidity 77    
Maximum Humidity 100    
Minimum Humidity 53    
Precipitation  
Precipitation 0.18 in 0.15 in 2.32 in (1933)
Month to date precipitation 1.67 1.92  
Year to date precipitation 14.30 12.79  
Snow  
Snow 0.00 in 0.20 in 11.40 in (1933)
Month to date snowfall T 2.0  
Since 1 July snowfall 82.2 61.1  
Snow Depth 0.00 in    
Sea Level Pressure  
Sea Level Pressure 30.20 in    
Wind  
Wind Speed 9 mph (NE)    
Max Wind Speed 17 mph    
Max Gust Speed 22 mph    
Visibility 9 miles    
Events Rain    
T = Trace of Precipitation, MM = Missing Value Source: NWS Daily Summary

Daily Weather History Graph

Daily Weather History Graph

Search for Another Location

Airport or City:

Trip Planner

Search our weather history database for the weather conditions in past years. The results will help you decide how hot, cold, wet, or windy it might be!

Date:

Astronomy

Apr. 13, 2014 Rise Set
Actual Time 6:01 AM EDT 7:22 PM EDT
Civil Twilight 5:32 AM EDT 7:52 PM EDT
Nautical Twilight 4:56 AM EDT 8:27 PM EDT
Astronomical Twilight 4:18 AM EDT 9:06 PM EDT
Moon 5:54 PM EDT (4/13) 5:02 AM EDT (4/13)
Length of Visible Light 14h 19m
Length of Day
13h 20m
Waxing Gibbous, 97% of the Moon is Illuminated
Apr 13
Waxing Gibbous
Apr 15
Full
Apr 22
Last Quarter
Apr 29
New
May 6
First Quarter

Hourly Weather History & Observations

Time (EDT) Temp. Windchill Dew Point Humidity Pressure Visibility Wind Dir Wind Speed Gust Speed Precip Events Conditions
12:51 AM 48.0 °F - 35.1 °F 61% 30.24 in 10.0 mi Calm Calm - N/A   Partly Cloudy
1:51 AM 46.9 °F - 34.0 °F 61% 30.25 in 10.0 mi Calm Calm - N/A   Overcast
2:51 AM 46.9 °F - 34.0 °F 61% 30.25 in 10.0 mi Calm Calm - N/A   Clear
3:51 AM 46.9 °F - 32.0 °F 56% 30.24 in 10.0 mi ENE 4.6 mph - N/A   Scattered Clouds
4:51 AM 46.9 °F - 32.0 °F 56% 30.26 in 10.0 mi North 3.5 mph - N/A   Mostly Cloudy
5:51 AM 46.9 °F - 30.9 °F 54% 30.28 in 10.0 mi NNE 4.6 mph - N/A   Mostly Cloudy
6:51 AM 44.6 °F 42.2 °F 30.2 °F 57% 30.30 in 10.0 mi NNE 4.6 mph - N/A   Overcast
7:51 AM 44.1 °F 37.4 °F 32.0 °F 63% 30.30 in 10.0 mi NE 13.8 mph - N/A   Overcast
8:51 AM 43.0 °F 35.1 °F 33.1 °F 68% 30.33 in 10.0 mi ENE 17.3 mph - 0.00 in Rain Light Rain
9:51 AM 42.1 °F 35.2 °F 33.1 °F 70% 30.33 in 9.0 mi ENE 12.7 mph - 0.01 in Rain Light Rain
10:51 AM 39.9 °F 32.5 °F 35.1 °F 83% 30.34 in 4.0 mi ENE 12.7 mph - 0.11 in Rain Rain
11:51 AM 39.9 °F 31.4 °F 35.1 °F 83% 30.29 in 10.0 mi NE 16.1 mph - 0.06 in Rain Light Rain
12:36 PM 39.9 °F 31.8 °F 36.0 °F 86% 30.27 in 10.0 mi ENE 15.0 mph - 0.00 in   Overcast
12:51 PM 39.9 °F 31.8 °F 37.0 °F 89% 30.27 in 10.0 mi ENE 15.0 mph - 0.00 in   Overcast
1:18 PM 39.9 °F 31.8 °F 37.0 °F 89% 30.25 in 10.0 mi ENE 15.0 mph - 0.00 in Rain Light Rain
1:51 PM 39.9 °F 31.8 °F 37.9 °F 93% 30.24 in 10.0 mi ENE 15.0 mph - 0.00 in   Overcast
2:51 PM 39.9 °F 32.1 °F 37.9 °F 93% 30.23 in 10.0 mi ENE 13.8 mph - N/A   Overcast
3:51 PM 41.0 °F 35.2 °F 39.0 °F 93% 30.18 in 7.0 mi ENE 9.2 mph - 0.00 in   Overcast
4:10 PM 42.1 °F 36.1 °F 39.9 °F 92% 30.17 in 8.0 mi ENE 10.4 mph - N/A   Overcast
4:22 PM 42.1 °F 36.6 °F 39.9 °F 92% 30.16 in 9.0 mi NE 9.2 mph - N/A   Overcast
4:51 PM 42.8 °F 38.0 °F 41.0 °F 93% 30.16 in 10.0 mi NE 8.1 mph - N/A   Overcast
5:15 PM 44.1 °F 38.6 °F 41.0 °F 89% 30.14 in 10.0 mi ENE 10.4 mph - N/A   Overcast
5:51 PM 45.0 °F 40.1 °F 39.9 °F 82% 30.14 in 10.0 mi ENE 9.2 mph - N/A   Mostly Cloudy
6:51 PM 44.1 °F 41.5 °F 37.9 °F 79% 30.11 in 10.0 mi ENE 4.6 mph - N/A   Scattered Clouds
7:51 PM 43.0 °F 39.5 °F 37.9 °F 82% 30.10 in 10.0 mi ENE 5.8 mph - N/A   Mostly Cloudy
8:25 PM 43.0 °F 37.7 °F 37.9 °F 82% 30.08 in 10.0 mi ENE 9.2 mph - N/A   Overcast
8:51 PM 43.0 °F 40.3 °F 39.0 °F 86% 30.08 in 10.0 mi NE 4.6 mph - N/A   Overcast
9:25 PM 43.0 °F 38.8 °F 39.0 °F 86% 30.07 in 10.0 mi NE 6.9 mph - N/A   Overcast
9:51 PM 44.1 °F 41.5 °F 39.9 °F 85% 30.07 in 10.0 mi North 4.6 mph - N/A   Overcast
10:51 PM 42.1 °F 37.7 °F 39.0 °F 89% 30.05 in 10.0 mi NW 6.9 mph - N/A   Overcast
11:25 PM 41.0 °F 36.4 °F 39.0 °F 93% 30.04 in 3.0 mi WNW 6.9 mph - N/A   Overcast
11:48 PM 39.2 °F 33.6 °F 39.2 °F 100% 30.04 in 2.0 mi West 8.1 mph - N/A   Overcast
11:51 PM 39.9 °F 34.5 °F 39.0 °F 97% 30.04 in 2.0 mi WNW 8.1 mph - N/A   Overcast